Weather in Nikolskoye

Russia / Novgorod Oblast     58°46′17″N   33°25′57″E
temp.,
°C
wind,
m/s
gust,
m/s
humid.,
%
clouds,
%
prec.,
mm/h
press.,
hPa
HPBL,
m
3 march, wed
wed300:00−4nw3109155 0.0 1016432
03:00−3wnw3109737 0.1 1017420
06:00−2wnw41094100 0.1 1015600
09:00−2wnw5992100 0.2 1015699
12:00−1w5989100 0.1 1013741
15:000w61086100 0.1 1011882
18:000w51382100 0.0 10081188
21:000w61396100 0.6 1005877
4 march, thu
thu400:000wnw51187100 1.5 1002980
03:00−2nw51087100 1.8 1003865
06:00−6nw3109226 0.0 1002419
09:00−6nw389013 0.0 1002455
12:00−3nw357946 0.0 1002710
15:00−2nnw347672 0.1 1002887
18:00−4nnw2591100 0.2 1002244
21:00−7nnw269698 0.3 1003211
5 march, fri
fri500:00−7nw259673 0.1 1004231
03:00−7nw269583 0.3 1006338
06:00−7nw389499 0.3 1007523
09:00−8nw379199 0.4 1008521
12:00−6nw3579100 0.1 1009836
15:00−5nw4577100 0.3 1011895
18:00−7nw3790100 0.3 1012518
21:00−8n2595100 0.4 1014330
6 march, sat
sat600:00−11nnw129659 0.0 101621
03:00−12wnw129629 0.0 101623
06:00−11w249733 0.0 1016119
09:00−9w369366 0.1 1015361
12:00−6wsw367685 0.0 1014746
15:00−4sw596870 0.0 10111257
18:00−5sw51273100 0.0 10071184
21:00−5sw71591100 0.6 10011312
7 march, sun
sun700:00−4sw71592100 1.2 9961163
03:00−3sw61494100 2.8 9901087
06:00−2sw71595100 1.9 9851266
09:00−7wnw81667100 4.5 9841717
12:00−7wsw81364100 0.2 9851809
15:00−6w81589100 0.9 9841517
18:00−7wnw71391100 1.3 9851128
21:00−7nw81491100 2.7 9881143